Time,TemperatureF,DewpointF,PressureIn,WindDirection,WindDirectionDegrees,WindSpeedMPH,WindSpeedGustMPH,Humidity,HourlyPrecipIn,Conditions,Clouds,dailyrainin,SoftwareType,DateUTC
2013-06-18 00:02:00,59.0,52.0,29.96,South,186,8.0,-999.0,79,-99.99,,,-99.99,,2013-06-18 07:02:00,
2013-06-18 00:12:00,59.0,53.0,29.96,SSW,194,7.0,-999.0,80,-99.99,,,-99.99,,2013-06-18 07:12:00,
2013-06-18 00:22:00,59.0,53.0,29.96,SSW,194,7.0,-999.0,80,-99.99,,,-99.99,,2013-06-18 07:22:00,
2013-06-18 00:33:00,58.0,52.0,29.96,South,182,7.0,-999.0,81,-99.99,,,-99.99,,2013-06-18 07:33:00,
2013-06-18 00:42:00,58.0,52.0,29.96,South,174,5.0,-999.0,81,-99.99,,,-99.99,,2013-06-18 07:42:00,
2013-06-18 00:52:00,58.0,52.0,29.96,South,174,5.0,-999.0,81,-99.99,,,-99.99,,2013-06-18 07:52:00,
2013-06-18 01:01:00,58.0,53.0,29.96,South,174,5.0,-999.0,82,-99.99,,,-99.99,,2013-06-18 08:01:00,
2013-06-18 01:11:00,58.0,53.0,29.96,South,174,5.0,-999.0,82,-99.99,,,-99.99,,2013-06-18 08:11:00,
2013-06-18 01:23:00,57.0,52.0,29.96,South,173,3.0,-999.0,83,-99.99,,,-99.99,,2013-06-18 08:23:00,
2013-06-18 01:32:00,57.0,52.0,29.96,South,173,1.0,-999.0,83,-99.99,,,-99.99,,2013-06-18 08:32:00,
2013-06-18 01:43:00,57.0,52.0,29.96,South,173,2.0,-999.0,83,-99.99,,,-99.99,,2013-06-18 08:43:00,
2013-06-18 01:52:00,57.0,52.0,29.96,South,173,2.0,-999.0,83,-99.99,,,-99.99,,2013-06-18 08:52:00,
2013-06-18 02:01:00,57.0,52.0,29.96,South,177,2.0,-999.0,84,-99.99,,,-99.99,,2013-06-18 09:01:00,
2013-06-18 02:11:00,56.0,52.0,29.95,South,177,3.0,-999.0,85,-99.99,,,-99.99,,2013-06-18 09:11:00,
2013-06-18 02:22:00,56.0,52.0,29.95,South,177,3.0,-999.0,85,-99.99,,,-99.99,,2013-06-18 09:22:00,
2013-06-18 02:34:00,56.0,52.0,29.95,South,178,3.0,-999.0,86,-99.99,,,-99.99,,2013-06-18 09:34:00,
2013-06-18 02:42:00,55.0,51.0,29.95,South,178,2.0,-999.0,87,-99.99,,,-99.99,,2013-06-18 09:42:00,
2013-06-18 02:53:00,55.0,51.0,29.95,South,178,2.0,-999.0,87,-99.99,,,-99.99,,2013-06-18 09:53:00,
2013-06-18 03:01:00,55.0,51.0,29.95,South,180,3.0,-999.0,87,-99.99,,,-99.99,,2013-06-18 10:01:00,
2013-06-18 03:11:00,55.0,51.0,29.95,South,180,3.0,-999.0,87,-99.99,,,-99.99,,2013-06-18 10:11:00,
2013-06-18 03:22:00,55.0,52.0,29.95,South,183,3.0,-999.0,88,-99.99,,,-99.99,,2013-06-18 10:22:00,
2013-06-18 03:33:00,55.0,52.0,29.94,South,184,3.0,-999.0,88,-99.99,,,-99.99,,2013-06-18 10:33:00,
2013-06-18 03:42:00,55.0,52.0,29.94,South,188,3.0,-999.0,89,-99.99,,,-99.99,,2013-06-18 10:42:00,
2013-06-18 03:53:00,55.0,52.0,29.94,South,188,3.0,-999.0,89,-99.99,,,-99.99,,2013-06-18 10:53:00,
2013-06-18 04:02:00,55.0,52.0,29.94,South,188,3.0,-999.0,89,-99.99,,,-99.99,,2013-06-18 11:02:00,
2013-06-18 04:11:00,55.0,52.0,29.94,South,188,3.0,-999.0,89,-99.99,,,-99.99,,2013-06-18 11:11:00,
2013-06-18 04:22:00,54.0,51.0,29.94,SSW,192,2.0,-999.0,89,-99.99,,,-99.99,,2013-06-18 11:22:00,
2013-06-18 04:32:00,54.0,51.0,29.94,SSW,193,2.0,-999.0,90,-99.99,,,-99.99,,2013-06-18 11:32:00,
2013-06-18 04:42:00,54.0,51.0,29.94,SSW,193,1.0,-999.0,90,-99.99,,,-99.99,,2013-06-18 11:42:00,
2013-06-18 04:52:00,54.0,51.0,29.94,SSW,193,1.0,-999.0,90,-99.99,,,-99.99,,2013-06-18 11:52:00,
2013-06-18 05:01:00,53.0,50.0,29.94,SSW,193,2.0,-999.0,90,-99.99,,,-99.99,,2013-06-18 12:01:00,
2013-06-18 05:11:00,54.0,51.0,29.94,SSW,193,3.0,-999.0,90,-99.99,,,-99.99,,2013-06-18 12:11:00,
2013-06-18 05:22:00,54.0,51.0,29.94,SSW,193,3.0,-999.0,90,-99.99,,,-99.99,,2013-06-18 12:22:00,
2013-06-18 05:32:00,54.0,51.0,29.94,SSW,193,3.0,-999.0,89,-99.99,,,-99.99,,2013-06-18 12:32:00,
2013-06-18 05:42:00,54.0,51.0,29.95,SSW,193,3.0,-999.0,90,-99.99,,,-99.99,,2013-06-18 12:42:00,
2013-06-18 05:52:00,54.0,51.0,29.95,SSW,193,3.0,-999.0,90,-99.99,,,-99.99,,2013-06-18 12:52:00,
2013-06-18 06:01:00,53.0,50.0,29.95,SSW,192,3.0,-999.0,89,-99.99,,,-99.99,,2013-06-18 13:01:00,
2013-06-18 06:11:00,54.0,51.0,29.95,SSW,192,5.0,-999.0,89,-99.99,,,-99.99,,2013-06-18 13:11:00,
2013-06-18 06:22:00,54.0,51.0,29.95,SSW,192,5.0,-999.0,89,-99.99,,,-99.99,,2013-06-18 13:22:00,
2013-06-18 06:33:00,53.0,50.0,29.95,South,190,4.0,-999.0,89,-99.99,,,-99.99,,2013-06-18 13:33:00,
2013-06-18 06:43:00,54.0,51.0,29.95,South,190,5.0,-999.0,89,-99.99,,,-99.99,,2013-06-18 13:43:00,
2013-06-18 06:52:00,54.0,51.0,29.95,South,190,5.0,-999.0,89,-99.99,,,-99.99,,2013-06-18 13:52:00,
2013-06-18 07:02:00,54.0,51.0,29.96,South,190,3.0,-999.0,89,-99.99,,,-99.99,,2013-06-18 14:02:00,
2013-06-18 07:11:00,55.0,51.0,29.96,South,190,4.0,-999.0,87,-99.99,,,-99.99,,2013-06-18 14:11:00,
2013-06-18 07:22:00,55.0,51.0,29.96,South,190,4.0,-999.0,87,-99.99,,,-99.99,,2013-06-18 14:22:00,
2013-06-18 07:33:00,56.0,52.0,29.96,South,189,4.0,-999.0,86,-99.99,,,-99.99,,2013-06-18 14:33:00,
2013-06-18 07:42:00,57.0,52.0,29.96,South,189,4.0,-999.0,84,-99.99,,,-99.99,,2013-06-18 14:42:00,
2013-06-18 07:52:00,57.0,52.0,29.96,South,189,4.0,-999.0,84,-99.99,,,-99.99,,2013-06-18 14:52:00,
2013-06-18 08:02:00,59.0,54.0,29.96,South,190,4.0,-999.0,82,-99.99,,,-99.99,,2013-06-18 15:02:00,
2013-06-18 08:11:00,60.0,54.0,29.96,South,190,4.0,-999.0,80,-99.99,,,-99.99,,2013-06-18 15:11:00,
2013-06-18 08:22:00,60.0,54.0,29.96,South,190,4.0,-999.0,80,-99.99,,,-99.99,,2013-06-18 15:22:00,
2013-06-18 08:33:00,61.0,54.0,29.96,South,189,4.0,-999.0,77,-99.99,,,-99.99,,2013-06-18 15:33:00,
2013-06-18 08:42:00,62.0,53.0,29.96,South,189,3.0,-999.0,73,-99.99,,,-99.99,,2013-06-18 15:42:00,
2013-06-18 08:52:00,62.0,53.0,29.96,South,189,3.0,-999.0,73,-99.99,,,-99.99,,2013-06-18 15:52:00,
2013-06-18 09:01:00,64.0,54.0,29.96,South,188,4.0,-999.0,70,-99.99,,,-99.99,,2013-06-18 16:01:00,
2013-06-18 09:11:00,64.0,54.0,29.96,South,188,4.0,-999.0,70,-99.99,,,-99.99,,2013-06-18 16:11:00,
2013-06-18 09:22:00,65.0,55.0,29.97,South,188,3.0,-999.0,69,-99.99,,,-99.99,,2013-06-18 16:22:00,
2013-06-18 09:33:00,66.0,54.0,29.97,South,188,3.0,-999.0,66,-99.99,,,-99.99,,2013-06-18 16:33:00,
2013-06-18 09:43:00,68.0,54.0,29.96,South,190,2.0,-999.0,60,-99.99,,,-99.99,,2013-06-18 16:43:00,
2013-06-18 09:52:00,68.0,54.0,29.96,South,190,2.0,-999.0,60,-99.99,,,-99.99,,2013-06-18 16:52:00,
2013-06-18 10:01:00,69.0,53.0,29.97,West,262,2.0,-999.0,56,-99.99,,,-99.99,,2013-06-18 17:01:00,
2013-06-18 10:11:00,70.0,54.0,29.96,West,259,1.0,-999.0,57,-99.99,,,-99.99,,2013-06-18 17:11:00,
2013-06-18 10:22:00,70.0,54.0,29.96,West,259,1.0,-999.0,57,-99.99,,,-99.99,,2013-06-18 17:22:00,
2013-06-18 10:33:00,71.0,54.0,29.96,South,186,2.0,-999.0,54,-99.99,,,-99.99,,2013-06-18 17:33:00,
2013-06-18 10:43:00,71.0,54.0,29.96,South,185,3.0,-999.0,54,-99.99,,,-99.99,,2013-06-18 17:43:00,
2013-06-18 10:53:00,71.0,54.0,29.96,South,185,3.0,-999.0,54,-99.99,,,-99.99,,2013-06-18 17:53:00,
2013-06-18 11:01:00,71.0,54.0,29.96,South,179,3.0,-999.0,54,-99.99,,,-99.99,,2013-06-18 18:01:00,
2013-06-18 11:11:00,71.0,52.0,29.96,SSE,166,3.0,-999.0,52,-99.99,,,-99.99,,2013-06-18 18:11:00,
2013-06-18 11:22:00,71.0,52.0,29.96,SSE,166,3.0,-999.0,52,-99.99,,,-99.99,,2013-06-18 18:22:00,
2013-06-18 11:33:00,71.0,52.0,29.96,SSW,205,4.0,-999.0,52,-99.99,,,-99.99,,2013-06-18 18:33:00,
2013-06-18 11:42:00,73.0,54.0,29.96,SSE,155,4.0,-999.0,51,-99.99,,,-99.99,,2013-06-18 18:42:00,
2013-06-18 11:53:00,73.0,54.0,29.96,SSE,155,4.0,-999.0,51,-99.99,,,-99.99,,2013-06-18 18:53:00,
2013-06-18 12:01:00,73.0,51.0,29.96,SW,222,4.0,-999.0,46,-99.99,,,-99.99,,2013-06-18 19:01:00,
2013-06-18 12:11:00,73.0,51.0,29.96,SW,222,4.0,-999.0,46,-99.99,,,-99.99,,2013-06-18 19:11:00,
2013-06-18 12:22:00,73.0,51.0,29.96,ENE,59,3.0,-999.0,46,-99.99,,,-99.99,,2013-06-18 19:22:00,
2013-06-18 12:33:00,74.0,51.0,29.96,ENE,62,2.0,-999.0,45,-99.99,,,-99.99,,2013-06-18 19:33:00,
2013-06-18 12:42:00,74.0,50.0,29.95,South,179,4.0,-999.0,43,-99.99,,,-99.99,,2013-06-18 19:42:00,
2013-06-18 12:52:00,74.0,50.0,29.95,South,179,4.0,-999.0,43,-99.99,,,-99.99,,2013-06-18 19:52:00,
2013-06-18 13:01:00,76.0,51.0,29.95,SW,236,3.0,-999.0,42,-99.99,,,-99.99,,2013-06-18 20:01:00,
2013-06-18 13:11:00,76.0,49.0,29.94,SSW,209,3.0,-999.0,38,-99.99,,,-99.99,,2013-06-18 20:11:00,
2013-06-18 13:22:00,76.0,49.0,29.94,SSW,209,3.0,-999.0,38,-99.99,,,-99.99,,2013-06-18 20:22:00,
2013-06-18 13:33:00,75.0,48.0,29.94,SW,229,3.0,-999.0,38,-99.99,,,-99.99,,2013-06-18 20:33:00,
2013-06-18 13:43:00,76.0,48.0,29.93,SW,231,2.0,-999.0,37,-99.99,,,-99.99,,2013-06-18 20:43:00,
2013-06-18 13:52:00,76.0,48.0,29.93,SW,231,2.0,-999.0,37,-99.99,,,-99.99,,2013-06-18 20:52:00,
2013-06-18 14:01:00,77.0,48.0,29.93,SSW,203,3.0,-999.0,36,-99.99,,,-99.99,,2013-06-18 21:01:00,
2013-06-18 14:11:00,77.0,47.0,29.93,SSW,212,4.0,-999.0,35,-99.99,,,-99.99,,2013-06-18 21:11:00,
2013-06-18 14:22:00,77.0,47.0,29.93,SSW,212,4.0,-999.0,35,-99.99,,,-99.99,,2013-06-18 21:22:00,
2013-06-18 14:33:00,78.0,46.0,29.92,SW,215,3.0,-999.0,32,-99.99,,,-99.99,,2013-06-18 21:33:00,
2013-06-18 14:42:00,79.0,47.0,29.92,WSW,242,4.0,-999.0,32,-99.99,,,-99.99,,2013-06-18 21:42:00,
2013-06-18 14:52:00,79.0,47.0,29.92,WSW,242,4.0,-999.0,32,-99.99,,,-99.99,,2013-06-18 21:52:00,
2013-06-18 15:01:00,79.0,46.0,29.92,SW,236,3.0,-999.0,31,-99.99,,,-99.99,,2013-06-18 22:01:00,
2013-06-18 15:11:00,79.0,46.0,29.92,SW,236,3.0,-999.0,31,-99.99,,,-99.99,,2013-06-18 22:11:00,
2013-06-18 15:22:00,79.0,44.0,29.92,WSW,239,4.0,-999.0,29,-99.99,,,-99.99,,2013-06-18 22:22:00,
2013-06-18 15:34:00,80.0,43.0,29.91,WSW,242,4.0,-999.0,27,-99.99,,,-99.99,,2013-06-18 22:34:00,
2013-06-18 15:42:00,80.0,44.0,29.91,NW,313,6.0,-999.0,28,-99.99,,,-99.99,,2013-06-18 22:42:00,
2013-06-18 15:53:00,80.0,44.0,29.91,NW,313,6.0,-999.0,28,-99.99,,,-99.99,,2013-06-18 22:53:00,
2013-06-18 16:01:00,80.0,42.0,29.91,SW,232,6.0,-999.0,26,-99.99,,,-99.99,,2013-06-18 23:01:00,
2013-06-18 16:11:00,80.0,44.0,29.91,WSW,238,6.0,-999.0,28,-99.99,,,-99.99,,2013-06-18 23:11:00,
2013-06-18 16:23:00,80.0,44.0,29.91,WSW,238,6.0,-999.0,28,-99.99,,,-99.99,,2013-06-18 23:23:00,
2013-06-18 16:35:00,80.0,48.0,29.90,SW,235,5.0,-999.0,33,-99.99,,,-99.99,,2013-06-18 23:35:00,
2013-06-18 16:44:00,78.0,50.0,29.89,South,190,6.0,-999.0,37,-99.99,,,-99.99,,2013-06-18 23:44:00,
2013-06-18 16:53:00,78.0,50.0,29.89,South,190,6.0,-999.0,37,-99.99,,,-99.99,,2013-06-18 23:53:00,
2013-06-18 17:01:00,77.0,49.0,29.89,South,186,8.0,-999.0,38,-99.99,,,-99.99,,2013-06-19 00:01:00,
2013-06-18 17:11:00,77.0,51.0,29.89,South,190,10.0,-999.0,41,-99.99,,,-99.99,,2013-06-19 00:11:00,
2013-06-18 17:22:00,77.0,51.0,29.89,South,190,10.0,-999.0,41,-99.99,,,-99.99,,2013-06-19 00:22:00,
2013-06-18 17:33:00,75.0,50.0,29.88,South,188,11.0,-999.0,42,-99.99,,,-99.99,,2013-06-19 00:33:00,
2013-06-18 17:43:00,75.0,52.0,29.88,South,191,10.0,-999.0,44,-99.99,,,-99.99,,2013-06-19 00:43:00,
2013-06-18 17:53:00,75.0,52.0,29.88,South,191,10.0,-999.0,44,-99.99,,,-99.99,,2013-06-19 00:53:00,
2013-06-18 18:01:00,75.0,52.0,29.88,South,189,7.0,-999.0,44,-99.99,,,-99.99,,2013-06-19 01:01:00,
2013-06-18 18:11:00,75.0,52.0,29.88,South,189,7.0,-999.0,44,-99.99,,,-99.99,,2013-06-19 01:11:00,
2013-06-18 18:22:00,75.0,52.0,29.88,South,190,7.0,-999.0,45,-99.99,,,-99.99,,2013-06-19 01:22:00,
2013-06-18 18:32:00,75.0,53.0,29.88,South,187,5.0,-999.0,46,-99.99,,,-99.99,,2013-06-19 01:32:00,
2013-06-18 18:42:00,75.0,53.0,29.88,South,187,5.0,-999.0,46,-99.99,,,-99.99,,2013-06-19 01:42:00,
2013-06-18 18:53:00,75.0,53.0,29.88,South,187,5.0,-999.0,46,-99.99,,,-99.99,,2013-06-19 01:53:00,
2013-06-18 19:01:00,75.0,53.0,29.88,South,187,5.0,-999.0,46,-99.99,,,-99.99,,2013-06-19 02:01:00,
2013-06-18 19:11:00,75.0,53.0,29.88,South,187,5.0,-999.0,46,-99.99,,,-99.99,,2013-06-19 02:11:00,
2013-06-18 19:21:00,74.0,52.0,29.88,SSW,197,5.0,-999.0,46,-99.99,,,-99.99,,2013-06-19 02:21:00,
2013-06-18 19:32:00,71.0,52.0,29.88,SSW,194,8.0,-999.0,51,-99.99,,,-99.99,,2013-06-19 02:32:00,
2013-06-18 19:42:00,71.0,52.0,29.88,SSW,194,8.0,-999.0,51,-99.99,,,-99.99,,2013-06-19 02:42:00,
2013-06-18 19:52:00,70.0,52.0,29.89,SSW,195,8.0,-999.0,53,-99.99,,,-99.99,,2013-06-19 02:52:00,
2013-06-18 20:01:00,69.0,52.0,29.89,South,190,5.0,-999.0,54,-99.99,,,-99.99,,2013-06-19 03:01:00,
2013-06-18 20:11:00,69.0,52.0,29.89,South,190,5.0,-999.0,54,-99.99,,,-99.99,,2013-06-19 03:11:00,
2013-06-18 20:21:00,68.0,51.0,29.89,South,190,5.0,-999.0,55,-99.99,,,-99.99,,2013-06-19 03:21:00,
2013-06-18 20:32:00,68.0,51.0,29.89,South,190,5.0,-999.0,55,-99.99,,,-99.99,,2013-06-19 03:32:00,
2013-06-18 20:42:00,66.0,51.0,29.89,SSW,192,5.0,-999.0,58,-99.99,,,-99.99,,2013-06-19 03:42:00,
2013-06-18 20:52:00,66.0,51.0,29.89,SSW,192,5.0,-999.0,58,-99.99,,,-99.99,,2013-06-19 03:52:00,
2013-06-18 21:01:00,63.0,51.0,29.89,SSW,192,4.0,-999.0,64,-99.99,,,-99.99,,2013-06-19 04:01:00,
2013-06-18 21:11:00,62.0,51.0,29.90,SSW,195,4.0,-999.0,67,-99.99,,,-99.99,,2013-06-19 04:11:00,
2013-06-18 21:22:00,62.0,51.0,29.90,SSW,195,4.0,-999.0,67,-99.99,,,-99.99,,2013-06-19 04:22:00,
2013-06-18 21:32:00,62.0,51.0,29.90,SSW,195,4.0,-999.0,67,-99.99,,,-99.99,,2013-06-19 04:32:00,
2013-06-18 21:42:00,62.0,51.0,29.90,SSW,195,4.0,-999.0,67,-99.99,,,-99.99,,2013-06-19 04:42:00,
2013-06-18 21:52:00,62.0,51.0,29.90,SSW,195,4.0,-999.0,67,-99.99,,,-99.99,,2013-06-19 04:52:00,
2013-06-18 22:01:00,61.0,51.0,29.91,SSW,192,4.0,-999.0,69,-99.99,,,-99.99,,2013-06-19 05:01:00,
2013-06-18 22:11:00,61.0,51.0,29.91,SSW,192,4.0,-999.0,69,-99.99,,,-99.99,,2013-06-19 05:11:00,
2013-06-18 22:22:00,61.0,51.0,29.91,SSW,192,4.0,-999.0,69,-99.99,,,-99.99,,2013-06-19 05:22:00,
2013-06-18 22:32:00,59.0,50.0,29.92,SSW,192,2.0,-999.0,72,-99.99,,,-99.99,,2013-06-19 05:32:00,
2013-06-18 22:42:00,58.0,49.0,29.93,SSW,192,1.0,-999.0,72,-99.99,,,-99.99,,2013-06-19 05:42:00,
2013-06-18 22:52:00,58.0,49.0,29.93,SSW,192,1.0,-999.0,72,-99.99,,,-99.99,,2013-06-19 05:52:00,
2013-06-18 23:01:00,61.0,49.0,29.92,SW,227,8.0,-999.0,64,-99.99,,,-99.99,,2013-06-19 06:01:00,
2013-06-18 23:11:00,61.0,49.0,29.92,SW,227,8.0,-999.0,64,-99.99,,,-99.99,,2013-06-19 06:11:00,
2013-06-18 23:21:00,59.0,49.0,29.93,WSW,238,6.0,-999.0,70,-99.99,,,-99.99,,2013-06-19 06:21:00,
2013-06-18 23:33:00,58.0,49.0,29.93,WSW,238,2.0,-999.0,73,-99.99,,,-99.99,,2013-06-19 06:33:00,
2013-06-18 23:42:00,57.0,48.0,29.94,WSW,238,1.0,-999.0,73,-99.99,,,-99.99,,2013-06-19 06:42:00,
2013-06-18 23:52:00,57.0,48.0,29.94,WSW,238,1.0,-999.0,73,-99.99,,,-99.99,,2013-06-19 06:52:00,